W8BYH Weather Reports


time (UTC)temp
C
wind
direction
speed
KPH
gust
KPH
rain 1hr
cm
rain 24hr
cm
rain mn
cm
humidity
%
barometer
mb
20260505034545 13 0 0.0 0.0 0.00 0.00 0.00 77 1015.5
20260505033046 13 0 0.0 0.0 0.00 0.00 0.00 76 1015.7
20260505031547 14 0 0.0 0.0 0.00 0.00 0.00 74 1015.6
20260505030045 14 0 0.0 0.0 0.00 0.00 0.00 73 1015.7
20260505024537 15 0 0.0 0.0 0.00 0.00 0.00 71 1015.6
20260505023051 16 0 0.0 0.0 0.00 0.00 0.00 72 1015.5
20260505021543 16 0 0.0 0.0 0.00 0.00 0.00 68 1015.4
20260505020044 16 0 0.0 0.0 0.00 0.00 0.00 66 1015.4
20260505014602 17 0 0.0 0.0 0.00 0.00 0.00 61 1015.2
20260505013042 17 0 0.0 0.0 0.00 0.00 0.00 60 1015.2
20260505011547 18 0 0.0 0.0 0.00 0.00 0.00 60 1015.0
20260505010046 18 0 0.0 0.0 0.00 0.00 0.00 60 1014.9
20260505004546 19 0 0.0 0.0 0.00 0.00 0.00 60 1014.8
20260505003040 20 0 0.0 0.0 0.00 0.00 0.00 56 1014.6
20260505001547 20 0 0.0 0.0 0.00 0.00 0.00 55 1014.5
20260505000040 21 0 0.0 0.0 0.00 0.00 0.00 55 1014.4
20260504234604 21 0 0.0 0.0 0.00 0.00 0.00 53 1014.4
20260504233050 22 0 0.0 0.0 0.00 0.00 0.00 50 1014.4
20260504231542 22 0 0.0 0.0 0.00 0.00 0.00 49 1014.4
20260504230042 22 0 0.0 0.0 0.00 0.00 0.00 48 1014.6
20260504224555 22 0 0.0 3.2 0.00 0.00 0.00 44 1014.5
20260504223047 23 0 0.0 1.6 0.00 0.00 0.00 45 1014.6
20260504221546 23 0 0.0 1.6 0.00 0.00 0.00 42 1014.7
20260504220044 23 0 0.0 3.2 0.00 0.00 0.00 46 1014.6
20260504214540 23 0 0.0 3.2 0.00 0.00 0.00 44 1014.5
20260504213055 23 5 0.0 3.2 0.00 0.00 0.00 41 1014.5
20260504211538 23 113 0.0 4.8 0.00 0.00 0.00 41 1014.5
20260504210049 23 0 0.0 3.2 0.00 0.00 0.00 42 1014.5
20260504204539 23 0 0.0 3.2 0.00 0.00 0.00 42 1014.9
20260504203049 23 0 0.0 3.2 0.00 0.00 0.00 42 1014.9
20260504201540 23 103 0.0 3.2 0.00 0.00 0.00 43 1015.0
20260504200036 23 0 0.0 3.2 0.00 0.00 0.00 36 1015.2
20260504194557 23 355 0.0 4.8 0.00 0.00 0.00 38 1015.3
20260504193052 23 0 0.0 4.8 0.00 0.00 0.00 35 1015.5
20260504191543 23 63 1.6 4.8 0.00 0.00 0.00 37 1015.9
20260504190105 24 0 0.0 8.0 0.00 0.00 0.00 39 1016.0
20260504184536 23 45 0.0 3.2 0.00 0.00 0.00 40 1016.2
20260504183045 24 0 0.0 6.4 0.00 0.00 0.00 41 1016.5
20260504181545 24 0 0.0 3.2 0.00 0.00 0.00 39 1016.6
20260504180044 24 0 0.0 3.2 0.00 0.00 0.00 39 1016.7
20260504174536 25 320 0.0 3.2 0.00 0.00 0.00 41 1016.9
20260504173051 24 80 0.0 1.6 0.00 0.00 0.00 41 1017.2
20260504171545 23 0 0.0 1.6 0.00 0.00 0.00 40 1017.4
20260504081546 7 0 0.0 0.0 0.00 0.00 0.00 91 1018.2
20260504044558 10 0 0.0 0.0 0.00 0.00 0.00 81 1019.1
20260504043039 10 0 0.0 0.0 0.00 0.00 0.00 80 1019.0
20260504041546 10 0 0.0 0.0 0.00 0.00 0.00 78 1019.0
20260504040047 10 0 0.0 0.0 0.00 0.00 0.00 77 1019.0